[[{"header":{"parameterUnit":"m.s-1","parameterCategory":1,"la1":30.2991,"la2":30.254,"lo1":-89.0895,"lo2":-89.0444,"dy":0.0017,"dx":0.0017,"nx":28,"ny":28,"refTime":"2023-07-17T21:00:00:Z","depth":0,"parameterNumber":2,"parameterNumberName":"U-component_of_WINDS"},"data":[0,0,0,0,0,0,0,0,0,0,0,0,0,0,0,0,0,0,0,0,0,0,0,0,0,0,0,0,0,0,0,0,0,0,0,0,0,0,0,0,0,0,0,0,0,0,0,0,0,0,0,0,0,0,0,0,0,0,0.377,0.3771,0,0.3859,0.386,0.3861,0.3906,0.3906,0.3906,0.3906,0.3998,0.4,0.4002,0,0,0,0,0,0,0,0,0,0,0,0,0,0.3639,0.3641,0.377,0.3771,0.3772,0.3859,0.386,0.3861,0.3906,0.3906,0.3906,0.3906,0.3997,0.4,0.4003,0,0,0,0,0,0,0,0,0,0,0,0,0,0.3708,0.3642,0.377,0.3805,0.3809,0.3859,0.386,0.3862,0.3906,0.3906,0.3906,0.3906,0.3996,0.3999,0.4003,0.4025,0,0,0.4014,0.4016,0,0,0,0,0,0,0,0,0.3704,0.3713,0.3799,0.3803,0.3807,0.3872,0.3848,0.3916,0.3906,0.3869,0.3906,0.3906,0.3956,0.3963,0.3979,0.4029,0.4033,0.4014,0.4017,0.4018,0.4019,0,0,0,0,0,0,0,0.37,0.371,0.3805,0.38,0.3805,0.3816,0.3826,0.3861,0.3911,0.3872,0.3876,0.3886,0.3958,0.3976,0.3982,0.4034,0.4014,0.4018,0.402,0.4021,0.4106,0.4106,0,0,0,0,0,0,0.3689,0.3705,0.3803,0.3808,0.3755,0.3819,0.383,0.3851,0.3911,0.392,0.3886,0.3888,0.3969,0.3977,0.3985,0.4015,0.4018,0.4022,0.4024,0.4106,0.4106,0.4106,0,0,0,0,0,0,0.3686,0.3697,0.3799,0.3758,0.3771,0.3821,0.3844,0.3853,0.387,0.3921,0.393,0.3894,0.397,0.398,0.4015,0.4018,0.4023,0.4027,0.4106,0.4106,0.4106,0.4073,0,0,0,0,0,0,0.3682,0.3696,0.3705,0.3758,0.3773,0.3827,0.3844,0.3854,0.3876,0.388,0.3932,0.394,0.3971,0.4009,0.4018,0.4023,0.4029,0.4106,0.4106,0.4106,0.4074,0.4072,0.407,0,0,0,0,0,0.3677,0.3692,0.3705,0.3716,0.3786,0.3827,0.3836,0.3871,0.3876,0.3886,0.3918,0.3939,0.4016,0.4012,0.4023,0.4029,0.4106,0.4106,0.4106,0.4075,0.4073,0.4071,0,0,0,0,0,0,0.3638,0.37,0.3715,0.3747,0.3781,0.3834,0.3847,0.3867,0.39,0.3902,0.3944,0.3955,0.3986,0.4011,0.4005,0.4053,0.4063,0.4065,0.4036,0.4034,0.4032,0.4025,0.4032,0,0,0,0,0,0.3634,0.3662,0.3714,0.3737,0.3754,0.3797,0.3817,0.384,0.3878,0.3892,0.3927,0.3963,0.3995,0.4016,0.4049,0.4078,0.409,0.4088,0.4086,0.4084,0.4086,0.4103,0.4102,0.4107,0.4107,0.4107,0,0,0.3624,0.3661,0.3676,0.3731,0.376,0.3788,0.3809,0.3839,0.386,0.3897,0.3932,0.3958,0.4001,0.4033,0.4048,0.4055,0.4087,0.4084,0.4082,0.4085,0.4103,0.4102,0.4102,0.4107,0.4107,0.4107,0,0,0.3621,0.3652,0.3675,0.3704,0.3748,0.3777,0.3782,0.3832,0.3851,0.3887,0.3915,0.3941,0.3996,0.4025,0.4047,0.4054,0.4074,0.4064,0.4054,0.407,0.407,0.407,0.4072,0.4073,0.4065,0.4065,0.4065,0,0.3604,0.3648,0.3684,0.3712,0.3735,0.3769,0.3792,0.3819,0.3871,0.3886,0.3893,0.3962,0.3993,0.4032,0.4034,0.405,0.4058,0.4058,0.4067,0.4067,0.4068,0.4071,0.4071,0.4064,0.4064,0.4064,0.4064,0,0.3624,0.3654,0.3667,0.3717,0.3741,0.3767,0.3807,0.3827,0.3848,0.3876,0.3912,0.395,0.3991,0.4002,0.4023,0.4044,0.4046,0.4059,0.407,0.4065,0.4068,0.407,0.4061,0.4062,0.4062,0.4063,0,0,0.36,0.3669,0.3673,0.3696,0.3747,0.3771,0.3798,0.3838,0.3854,0.3889,0.3912,0.3958,0.397,0.3995,0.402,0.4034,0.4037,0.4045,0.4047,0.4042,0.4062,0.4051,0.4052,0.405,0.4051,0.4051,0.4058,0,0.3604,0.3654,0.3687,0.3723,0.3752,0.3784,0.3808,0.3841,0.3868,0.3896,0.3925,0.3957,0.3971,0.3986,0.4001,0.4033,0.4041,0.4033,0.4072,0.4073,0.4061,0.4054,0.4044,0.4049,0.406,0.406,0.406,0,0.3616,0.3649,0.3689,0.3737,0.375,0.377,0.3809,0.3835,0.3874,0.3892,0.3919,0.3945,0.3974,0.3982,0.4023,0.4016,0.4034,0.4052,0.4054,0.4059,0.4066,0.4059,0.4051,0.4052,0.4063,0.4062,0.4062,0,0.3594,0.3649,0.368,0.3698,0.3755,0.3768,0.3793,0.3831,0.3853,0.3887,0.3901,0.3938,0.3958,0.3986,0.4021,0.4023,0.4058,0.4069,0.4074,0.4073,0.408,0.4079,0.4075,0.4092,0.4092,0.4092,0.4092,0,0.3595,0.3618,0.3671,0.3689,0.3716,0.3754,0.3779,0.3806,0.384,0.3864,0.3895,0.3917,0.3961,0.3988,0.4015,0.4045,0.4054,0.407,0.4077,0.4067,0.4065,0.4079,0.408,0.4092,0.4092,0.4092,0.4092,0,0.3575,0.3611,0.3647,0.3697,0.3711,0.3728,0.3771,0.379,0.3819,0.3849,0.3858,0.3903,0.3937,0.3973,0.402,0.4038,0.4066,0.4076,0.4053,0.4057,0.406,0.4059,0.4065,0.4068,0.4082,0.4082,0.4082,0,0.3573,0.3592,0.3644,0.3663,0.3686,0.3716,0.3738,0.3776,0.3798,0.3843,0.3857,0.3893,0.3924,0.3977,0.4013,0.4048,0.4059,0.4059,0.4065,0.4054,0.4059,0.4057,0.4059,0.4057,0.4057,0.4056,0.4056,0,0.3567,0.3584,0.3615,0.3652,0.3677,0.3708,0.3741,0.3754,0.3798,0.3821,0.3856,0.388,0.3927,0.3963,0.4003,0.4028,0.4049,0.4054,0.4057,0.4047,0.4033,0.4041,0.4048,0.4054,0.4054,0.4054,0.4054,0.4054,0.3556,0.3574,0.3613,0.3647,0.3675,0.3704,0.3725,0.3755,0.3785,0.3827,0.3847,0.3882,0.392,0.3975,0.4,0.4027,0.4034,0.4038,0.404,0.404,0.4037,0.4028,0.4035,0.4035,0.4035,0.4035,0.4035,0,0.3551,0.3578,0.3608,0.3652,0.3678,0.3696,0.3733,0.3753,0.3783,0.3817,0.3847,0.3887,0.3921,0.396,0.3997,0.4011,0.4022,0.402,0.4019,0.4024,0.403,0.4023,0.401,0.401,0.401,0.401,0.401,0.401,0.3551,0.3582,0.3604,0.3649,0.3676,0.371,0.3729,0.3756,0.3783,0.3826,0.3855,0.388,0.3916,0.3955,0.3987,0.3998,0.401,0.4004,0.4018,0.4022,0.4024,0.4026,0.402,0.4007,0.4007,0.401,0.401,0.401]},{"header":{"parameterUnit":"m.s-1","parameterCategory":1,"la1":30.2991,"la2":30.254,"lo1":-89.0895,"lo2":-89.0444,"dy":0.0017,"dx":0.0017,"nx":28,"ny":28,"refTime":"2023-07-17T21:00:00:Z","depth":0,"parameterNumber":3,"parameterNumberName":"V-component_of_WINDS"},"data":[0,0,0,0,0,0,0,0,0,0,0,0,0,0,0,0,0,0,0,0,0,0,0,0,0,0,0,0,0,0,0,0,0,0,0,0,0,0,0,0,0,0,0,0,0,0,0,0,0,0,0,0,0,0,0,0,0,0,3.8685,3.8685,0,3.8645,3.8644,3.8644,3.8644,3.8645,3.8645,3.8646,3.8598,3.8596,3.8595,0,0,0,0,0,0,0,0,0,0,0,0,0,3.8757,3.8756,3.8685,3.8685,3.8684,3.8645,3.8644,3.8644,3.8644,3.8645,3.8645,3.8646,3.8599,3.8597,3.8595,0,0,0,0,0,0,0,0,0,0,0,0,0,3.8722,3.8756,3.8686,3.868,3.8679,3.8645,3.8644,3.8643,3.8644,3.8645,3.8646,3.8646,3.8599,3.8597,3.8594,3.8561,0,0,3.8586,3.8585,0,0,0,0,0,0,0,0,3.8724,3.872,3.8681,3.868,3.8679,3.865,3.8652,3.8616,3.8644,3.8657,3.8646,3.8647,3.8614,3.8611,3.8601,3.8559,3.8557,3.8586,3.8584,3.8583,3.8582,0,0,0,0,0,0,0,3.8727,3.8721,3.8669,3.8681,3.8679,3.8677,3.8673,3.8645,3.8631,3.8656,3.8656,3.8651,3.8614,3.8604,3.86,3.8556,3.8586,3.8583,3.8582,3.8581,3.8482,3.8481,0,0,0,0,0,0,3.8731,3.8723,3.867,3.8668,3.8704,3.8676,3.8671,3.8659,3.8632,3.8629,3.8651,3.8652,3.8608,3.8603,3.8598,3.8556,3.8583,3.8581,3.8579,3.8483,3.8481,3.848,0,0,0,0,0,0,3.8733,3.8726,3.8672,3.8696,3.8689,3.8673,3.866,3.8657,3.8647,3.8628,3.8625,3.8643,3.8608,3.8602,3.857,3.8554,3.8579,3.8577,3.8484,3.8482,3.8481,3.8472,0,0,0,0,0,0,3.8735,3.8727,3.8716,3.8695,3.8687,3.8647,3.8659,3.8656,3.8643,3.8644,3.862,3.8616,3.8608,3.8574,3.8567,3.8551,3.8575,3.8485,3.8483,3.8481,3.8474,3.847,3.8468,0,0,0,0,0,3.8737,3.8714,3.8715,3.8709,3.8673,3.8646,3.8641,3.8634,3.8642,3.8629,3.8617,3.8617,3.8557,3.8571,3.8563,3.8546,3.8486,3.8484,3.8482,3.8475,3.8471,3.8468,0,0,0,0,0,0,3.8731,3.8711,3.8712,3.8682,3.8666,3.8646,3.863,3.863,3.8609,3.8611,3.8601,3.8595,3.8563,3.8551,3.8567,3.8511,3.8522,3.8518,3.852,3.8516,3.8513,3.8516,3.8573,0,0,0,0,0,3.8727,3.8708,3.8691,3.8666,3.8658,3.8645,3.8633,3.8629,3.8611,3.8603,3.8588,3.8569,3.8545,3.853,3.8508,3.8472,3.8465,3.8456,3.8453,3.8451,3.8447,3.8425,3.842,3.8473,3.8473,3.8473,0,0,3.8716,3.8703,3.8692,3.8664,3.8651,3.863,3.8639,3.8617,3.86,3.8599,3.8568,3.8557,3.8534,3.85,3.8484,3.8489,3.8431,3.8448,3.8446,3.8443,3.8422,3.8417,3.8413,3.8471,3.8471,3.8472,0,0,3.8687,3.8676,3.8653,3.864,3.862,3.8612,3.8607,3.8587,3.8579,3.8548,3.8547,3.8526,3.8486,3.847,3.8456,3.8419,3.8418,3.8412,3.8395,3.8374,3.837,3.8366,3.8351,3.8346,3.8408,3.8408,3.8408,0,3.8676,3.8646,3.8641,3.8618,3.8605,3.8605,3.858,3.8567,3.854,3.853,3.8537,3.8486,3.8471,3.8432,3.8423,3.8413,3.8404,3.8414,3.8371,3.8368,3.8364,3.8349,3.8344,3.8408,3.8408,3.8408,3.8408,0,3.8633,3.8612,3.8595,3.8571,3.8556,3.8532,3.8522,3.8507,3.8503,3.8494,3.8461,3.8443,3.8416,3.8407,3.8403,3.8366,3.837,3.8374,3.8385,3.8358,3.8344,3.8339,3.8407,3.8407,3.8407,3.8407,0,0,3.8598,3.8571,3.8565,3.8554,3.8531,3.8514,3.8489,3.8464,3.8451,3.8432,3.8409,3.8375,3.8379,3.8364,3.8358,3.8339,3.8308,3.8345,3.8345,3.8338,3.8264,3.826,3.8254,3.8308,3.8307,3.8306,3.8265,0,3.8565,3.8523,3.8518,3.848,3.8459,3.8458,3.8436,3.8418,3.8408,3.8387,3.8375,3.8351,3.8358,3.8349,3.8331,3.8316,3.8293,3.8319,3.8284,3.8283,3.8289,3.8247,3.8243,3.8205,3.826,3.8259,3.8258,0,3.8521,3.8502,3.8463,3.8442,3.8433,3.8414,3.839,3.8371,3.835,3.8344,3.8326,3.8322,3.8294,3.8307,3.8266,3.8284,3.8269,3.826,3.8258,3.8253,3.8268,3.8239,3.8193,3.8187,3.825,3.8251,3.8251,0,3.8497,3.8462,3.8434,3.8424,3.84,3.8386,3.8375,3.8355,3.834,3.8318,3.8308,3.8283,3.8268,3.8248,3.8236,3.8247,3.8195,3.8208,3.8187,3.8187,3.8175,3.8176,3.8125,3.8168,3.8168,3.8168,3.8168,0,3.846,3.8436,3.8423,3.8405,3.8377,3.8369,3.834,3.8329,3.8312,3.829,3.8287,3.8266,3.8253,3.8229,3.822,3.8186,3.818,3.8172,3.8169,3.8171,3.8172,3.8161,3.8162,3.8167,3.8167,3.8167,3.8168,0,3.8429,3.842,3.8388,3.8368,3.8362,3.8342,3.8324,3.8305,3.8295,3.8267,3.826,3.8243,3.8215,3.8202,3.8167,3.816,3.8121,3.8121,3.8129,3.8128,3.8107,3.8108,3.8045,3.8035,3.8087,3.8087,3.8086,0,3.8405,3.8387,3.8365,3.8351,3.834,3.8317,3.8302,3.8293,3.8277,3.8252,3.8235,3.8208,3.8185,3.8139,3.8123,3.8095,3.8093,3.8073,3.8089,3.8091,3.809,3.8091,3.8088,3.8069,3.8069,3.8069,3.8068,0,3.8364,3.836,3.8339,3.8317,3.8299,3.828,3.8262,3.825,3.8238,3.8219,3.8192,3.8174,3.8138,3.811,3.8081,3.8067,3.8064,3.8064,3.8057,3.8058,3.8063,3.8058,3.8119,3.8065,3.8065,3.8065,3.8066,3.8066,3.8334,3.8317,3.8299,3.8275,3.826,3.8243,3.8224,3.8212,3.8189,3.8161,3.8157,3.8126,3.8104,3.8065,3.805,3.8024,3.8028,3.8019,3.8017,3.8014,3.8012,3.8068,3.8019,3.8019,3.8019,3.8019,3.8019,0,3.8291,3.8279,3.8258,3.8233,3.8213,3.8215,3.8194,3.8177,3.8152,3.8132,3.811,3.8077,3.8049,3.803,3.8,3.7983,3.7981,3.7976,3.7976,3.7972,3.8011,3.8019,3.7978,3.7978,3.7978,3.7978,3.7978,3.7978,3.8266,3.8236,3.823,3.8192,3.8179,3.8151,3.8139,3.8122,3.8106,3.807,3.8047,3.8036,3.8015,3.7984,3.7958,3.7953,3.7941,3.7935,3.793,3.7966,3.797,3.7974,3.7981,3.7933,3.7933,3.7893,3.7893,3.7893]}]]